TimeCDT,TemperatureF,Dew PointF,Humidity,Sea Level PressureIn,VisibilityMPH,Wind Direction,Wind SpeedMPH,Gust SpeedMPH,PrecipitationIn,Events,Conditions,WindDirDegrees,DateUTC
12:15 AM,58.5,56.7,94,30.17,10.0,Calm,Calm,-,N/A,,Clear,0,2013-08-18 05:15:00
12:35 AM,58.3,55.6,91,30.17,10.0,Calm,Calm,-,N/A,,Clear,0,2013-08-18 05:35:00
12:55 AM,57.7,55.2,91,30.17,10.0,Calm,Calm,-,N/A,,Clear,0,2013-08-18 05:55:00
1:15 AM,57.2,55.0,92,30.17,10.0,Calm,Calm,-,N/A,,Clear,0,2013-08-18 06:15:00
1:35 AM,56.7,54.5,92,30.17,10.0,Calm,Calm,-,N/A,,Clear,0,2013-08-18 06:35:00
1:55 AM,59.0,55.8,89,30.17,10.0,Calm,Calm,-,N/A,,Clear,0,2013-08-18 06:55:00
2:15 AM,59.2,55.8,88,30.17,10.0,Calm,Calm,-,N/A,,Clear,0,2013-08-18 07:15:00
2:35 AM,57.2,55.9,96,30.17,10.0,Calm,Calm,-,N/A,,Clear,0,2013-08-18 07:35:00
2:55 AM,56.3,55.4,97,30.17,7.0,Calm,Calm,-,N/A,,Clear,0,2013-08-18 07:55:00
3:15 AM,55.8,54.7,96,30.17,10.0,Calm,Calm,-,N/A,,Clear,0,2013-08-18 08:15:00
3:35 AM,55.2,54.3,97,30.16,7.0,Calm,Calm,-,N/A,,Clear,0,2013-08-18 08:35:00
3:55 AM,53.6,52.3,95,30.17,10.0,Calm,Calm,-,N/A,,Clear,0,2013-08-18 08:55:00
4:15 AM,54.5,53.6,97,30.17,7.0,Calm,Calm,-,N/A,,Clear,0,2013-08-18 09:15:00
4:35 AM,53.6,52.7,97,30.17,7.0,Calm,Calm,-,N/A,,Clear,0,2013-08-18 09:35:00
4:55 AM,53.6,52.7,97,30.17,7.0,Calm,Calm,-,N/A,,Clear,0,2013-08-18 09:55:00
5:15 AM,53.6,52.7,97,30.18,7.0,Calm,Calm,-,N/A,,Clear,0,2013-08-18 10:15:00
5:35 AM,53.4,52.7,97,30.18,7.0,Calm,Calm,-,N/A,,Clear,0,2013-08-18 10:35:00
5:55 AM,53.1,52.2,97,30.18,7.0,Calm,Calm,-,N/A,,Clear,0,2013-08-18 10:55:00
6:15 AM,52.3,51.8,98,30.18,4.0,Calm,Calm,-,N/A,,Clear,0,2013-08-18 11:15:00
6:35 AM,52.9,52.0,97,30.19,7.0,Calm,Calm,-,N/A,,Clear,0,2013-08-18 11:35:00
6:55 AM,54.0,53.1,97,30.20,5.0,Calm,Calm,-,N/A,,Clear,0,2013-08-18 11:55:00
7:15 AM,56.5,55.2,96,30.20,4.0,Calm,Calm,-,N/A,,Clear,0,2013-08-18 12:15:00
7:35 AM,57.6,56.5,96,30.21,4.0,Calm,Calm,-,N/A,,Clear,0,2013-08-18 12:35:00
7:55 AM,59.0,57.9,96,30.21,4.0,Calm,Calm,-,N/A,,Clear,0,2013-08-18 12:55:00
8:15 AM,60.8,59.0,94,30.22,5.0,Calm,Calm,-,N/A,,Clear,0,2013-08-18 13:15:00
8:35 AM,62.4,59.5,90,30.22,7.0,Calm,Calm,-,N/A,,Clear,0,2013-08-18 13:35:00
8:55 AM,64.8,60.8,87,30.21,10.0,Calm,Calm,-,N/A,,Clear,0,2013-08-18 13:55:00
9:15 AM,66.9,60.8,81,30.21,10.0,Calm,Calm,-,N/A,,Clear,0,2013-08-18 14:15:00
9:35 AM,70.2,61.0,73,30.21,10.0,Calm,Calm,-,N/A,,Clear,0,2013-08-18 14:35:00
9:55 AM,71.8,59.4,65,30.21,10.0,Calm,Calm,-,N/A,,Clear,0,2013-08-18 14:55:00
10:15 AM,74.1,58.5,58,30.21,10.0,Calm,Calm,-,N/A,,Clear,0,2013-08-18 15:15:00
10:35 AM,74.7,58.8,58,30.21,10.0,ESE,3.5,-,N/A,,Clear,110,2013-08-18 15:35:00
10:55 AM,75.9,58.1,54,30.20,10.0,East,3.5,-,N/A,,Clear,80,2013-08-18 15:55:00
11:15 AM,76.6,58.3,53,30.20,10.0,NNE,4.6,-,N/A,,Clear,30,2013-08-18 16:15:00
11:35 AM,77.7,57.6,50,30.19,10.0,East,4.6,-,N/A,,Clear,90,2013-08-18 16:35:00
11:55 AM,77.5,57.4,50,30.19,10.0,ENE,4.6,-,N/A,,Clear,70,2013-08-18 16:55:00
12:15 PM,78.1,58.1,50,30.19,10.0,ENE,5.8,-,N/A,,Scattered Clouds,70,2013-08-18 17:15:00
12:35 PM,78.8,58.6,50,30.18,10.0,NE,4.6,-,N/A,,Scattered Clouds,40,2013-08-18 17:35:00
12:55 PM,79.5,57.4,47,30.17,10.0,East,5.8,-,N/A,,Scattered Clouds,100,2013-08-18 17:55:00
1:15 PM,79.0,57.2,47,30.17,10.0,East,4.6,-,N/A,,Clear,80,2013-08-18 18:15:00
1:35 PM,78.8,57.2,47,30.16,10.0,Calm,Calm,-,N/A,,Clear,0,2013-08-18 18:35:00
1:55 PM,79.7,56.8,45,30.16,10.0,East,6.9,-,N/A,,Clear,100,2013-08-18 18:55:00
2:15 PM,80.1,58.1,47,30.15,10.0,NE,3.5,-,N/A,,Clear,40,2013-08-18 19:15:00
2:35 PM,79.3,55.4,44,30.14,10.0,SW,3.5,-,N/A,,Clear,230,2013-08-18 19:35:00
2:55 PM,79.5,56.1,44,30.14,10.0,ENE,3.5,-,N/A,,Clear,60,2013-08-18 19:55:00
3:15 PM,81.3,56.7,43,30.13,10.0,East,4.6,-,N/A,,Clear,80,2013-08-18 20:15:00
3:35 PM,81.1,53.8,39,30.13,10.0,SE,4.6,-,N/A,,Clear,130,2013-08-18 20:35:00
3:55 PM,81.1,55.6,41,30.13,10.0,SE,4.6,-,N/A,,Clear,140,2013-08-18 20:55:00
4:15 PM,80.6,55.9,43,30.13,10.0,SE,4.6,-,N/A,,Clear,130,2013-08-18 21:15:00
4:35 PM,81.3,53.6,38,30.12,10.0,ESE,5.8,-,N/A,,Clear,110,2013-08-18 21:35:00
4:55 PM,80.6,54.0,40,30.11,10.0,South,3.5,-,N/A,,Clear,170,2013-08-18 21:55:00
5:15 PM,80.6,55.6,42,30.11,10.0,ESE,4.6,-,N/A,,Clear,120,2013-08-18 22:15:00
5:35 PM,80.2,56.1,43,30.11,10.0,South,5.8,-,N/A,,Clear,170,2013-08-18 22:35:00
5:55 PM,79.9,55.0,42,30.11,10.0,SE,5.8,-,N/A,,Clear,130,2013-08-18 22:55:00
6:15 PM,79.7,53.8,41,30.11,10.0,SE,3.5,-,N/A,,Clear,130,2013-08-18 23:15:00
6:35 PM,79.3,54.7,42,30.11,10.0,ESE,3.5,-,N/A,,Clear,120,2013-08-18 23:35:00
6:55 PM,78.8,55.0,44,30.11,10.0,Calm,Calm,-,N/A,,Clear,0,2013-08-18 23:55:00
7:15 PM,75.2,61.9,63,30.11,10.0,Calm,Calm,-,N/A,,Clear,0,2013-08-19 00:15:00
7:35 PM,70.9,62.8,75,30.11,10.0,Calm,Calm,-,N/A,,Clear,0,2013-08-19 00:35:00
7:55 PM,68.7,60.1,74,30.11,10.0,Calm,Calm,-,N/A,,Clear,0,2013-08-19 00:55:00
8:15 PM,67.1,59.9,78,30.11,10.0,Calm,Calm,-,N/A,,Clear,0,2013-08-19 01:15:00
8:35 PM,65.7,58.3,77,30.11,10.0,Calm,Calm,-,N/A,,Clear,0,2013-08-19 01:35:00
8:55 PM,65.5,58.5,78,30.11,10.0,Calm,Calm,-,N/A,,Clear,0,2013-08-19 01:55:00
9:15 PM,64.2,58.5,82,30.13,10.0,Calm,Calm,-,N/A,,Clear,0,2013-08-19 02:15:00
9:35 PM,63.9,58.3,82,30.13,10.0,Calm,Calm,-,N/A,,Clear,0,2013-08-19 02:35:00
9:55 PM,62.6,57.7,84,30.13,10.0,Calm,Calm,-,N/A,,Clear,0,2013-08-19 02:55:00
10:15 PM,62.8,58.1,85,30.13,10.0,Calm,Calm,-,N/A,,Clear,0,2013-08-19 03:15:00
10:35 PM,61.9,58.3,88,30.13,10.0,Calm,Calm,-,N/A,,Clear,0,2013-08-19 03:35:00
10:55 PM,61.7,57.6,86,30.13,10.0,Calm,Calm,-,N/A,,Clear,0,2013-08-19 03:55:00
11:15 PM,60.3,56.8,88,30.12,10.0,Calm,Calm,-,N/A,,Clear,0,2013-08-19 04:15:00
11:35 PM,60.1,56.8,89,30.12,10.0,Calm,Calm,-,N/A,,Clear,0,2013-08-19 04:35:00
11:55 PM,60.3,56.8,88,30.13,10.0,Calm,Calm,-,N/A,,Clear,0,2013-08-19 04:55:00